Regional Weather Roundup
Issued by NWS

Home | Current Version | Previous Version | Graphics & Text | Print | Product List | Glossary On
Versions: 1 2 3 4 5 6 7 8 9 10 11 12 13 14 15 16 17 18 19 20 21 22 23 24 25 26 27 28 29 30 31 32 33 34 35 36 37 38 39 40 41 42 43 44 45 46 47 48 49 50
000
ASUS43 KIND 032259
RWRIN

WEATHER ROUNDUP FOR INDIANA
NATIONAL WEATHER SERVICE INDIANAPOLIS IN
700 PM EDT FRI JUL 03 2015

NOTE: "FAIR" INDICATES FEW OR NO CLOUDS BELOW 12,000 FEET WITH NO
SIGNIFICANT WEATHER AND/OR OBSTRUCTIONS TO VISIBILITY.

* - STATION DOES NOT REPORT WEATHER SUCH AS PRECIPITATION OR FOG.

+ - STATION NOT QUALITY CONTROLLED BY THE NATIONAL WEATHER SERVICE.
    USE DATA WITH CAUTION...ESPECIALLY DEWPOINT AND RELATIVE
    HUMIDITY OBSERVATIONS.

INZ001>003-010>013-019-020-040000-
NORTHWEST INDIANA

CITY           SKY/WX    TMP DP  RH WIND       PRES   REMARKS
GARY /AIRPORT/ MOSUNNY   70  57  64 NE7       29.93F
MONTICELLO +   PTSUNNY   74  62  65 CALM      29.90F
RENSSELAER +   MOSUNNY   75  59  57 E5        29.91S

$$

LMZ046-743>745-040000-
SOUTHERN LAKE MICHIGAN

STATION/POSITION TIME  TEMP    WIND        PRES    WAVE
                       AIR SEA DIR/SP/G            HT
                 (UTC) (F)     (DEG/KT/KT) (MB)    (FT)
BURNS HARBOR     2200   66      40/  9/ 10 1014.2S
MICHIGAN CITY    2200   63     360/  6/  6   N/A
5NW MICH CITY    2200   64 65   20/  6/  8   N/A     1

$$

INZ004-005-014>016-021>024-040000-
NORTH CENTRAL INDIANA

CITY           SKY/WX    TMP DP  RH WIND       PRES   REMARKS
ELKHART        MOSUNNY   75  50  41 CALM      29.92F
GOSHEN         MOSUNNY   74  55  51 NE3       29.91F
PERU/GRISSOM   CLOUDY    73  63  68 NE6       29.89F
SOUTH BEND     SUNNY     76  54  46 NW5       29.92F

$$

INZ006>009-017-018-025>027-040000-
NORTHEAST INDIANA

CITY           SKY/WX    TMP DP  RH WIND       PRES   REMARKS
ANGOLA *+        N/A     75  54  46 N5        29.92S
FORT WAYNE     PTSUNNY   75  59  57 NE7       29.91F

$$

INZ028-029-035-036-043>045-051>053-040000-
WEST CENTRAL INDIANA

CITY           SKY/WX    TMP DP  RH WIND       PRES   REMARKS
CRAWFORDSVL +  MOSUNNY   73  58  60 NE9       29.89F
GREENCASTLE +  MOSUNNY   72  61  68 N12       29.89S
LAFAYETTE      PTSUNNY   73  62  68 NE8       29.89F
TERRE HAUTE    MOSUNNY   77  66  68 NE9       29.87F

$$

INZ030>032-037>040-046>048-054>057-064-065-040000-
CENTRAL INDIANA

CITY           SKY/WX    TMP DP  RH WIND       PRES   REMARKS
COLUMBUS       CLOUDY    72  64  78 NE10      29.88S
GREENWOOD *+   CLOUDY    72  63  73 CALM      29.89F
INDIANAPOLIS   CLOUDY    73  62  68 NE9       29.87S
-EAGLE CREEK   CLOUDY    72  65  78 VRB6      29.88S
KOKOMO *+      PTSUNNY   73  63  68 E3        29.90F
MT COMFORT *+  MOSUNNY   73  57  56 E5        29.89S
SHELBYVILLE    MOSUNNY   74  65  73 E6        29.87F

$$

INZ033-034-041-042-049-050-058-059-040000-
EAST CENTRAL INDIANA

CITY           SKY/WX    TMP DP  RH WIND       PRES   REMARKS
MUNCIE         PTSUNNY   75  61  61 NE7       29.89S

$$

INZ060-061-067>069-081>083-085>088-040000-
SOUTHWEST INDIANA

CITY           SKY/WX    TMP DP  RH WIND       PRES   REMARKS
EVANSVILLE     MOSUNNY   81  69  67 N6        29.85R HAZE
HUNTINGBURG *+ PTSUNNY   73  70  88 E7        29.85R

$$

INZ062-063-066-070>080-084-089>092-040000-
SOUTH CENTRAL AND SOUTHEAST INDIANA

CITY           SKY/WX    TMP DP  RH WIND       PRES   REMARKS
BLOOMINGTON    PTSUNNY   75  66  73 NE12      29.87F
MADISON *+     CLOUDY    72  64  78 N6        29.88S
SEYMOUR +      PTSUNNY   75  66  73 N9        29.87S

$$



USA.gov is the U.S. government's official web portal to all federal, state and local government web resources and services.